EW2785 Weather Reports


Display with metric or nautical units.
time (UTC)temp
F
wind
direction
speed
MPH
gust
MPH
rain 1hr
in
rain 24hr
in
rain mn
in
humidity
%
barometer
mb
20260831131554 62 348 0.0 3.0 0.00 0.00 0.00 92 1020.2
20260831130045 62 350 0.0 2.0 0.00 0.00 0.00 93 1020.4
20260831124541 61 350 1.0 4.0 0.00 0.00 0.00 93 1020.5
20260831123043 61 334 0.0 2.0 0.00 0.00 0.00 93 1020.6
20260831121537 60 201 0.0 0.0 0.00 0.00 0.00 93 1020.6
20260831120036 60 201 0.0 0.0 0.00 0.00 0.00 93 1020.5
20260831114536 60 201 0.0 0.0 0.00 0.00 0.00 93 1020.6
20260831113041 60 201 0.0 1.0 0.00 0.00 0.00 93 1020.4
20260831111540 59 201 0.0 0.0 0.00 0.00 0.00 93 1020.1
20260831110033 59 201 0.0 0.0 0.00 0.00 0.00 93 1020.0
20260831104533 59 201 0.0 0.0 0.00 0.00 0.00 92 1019.7
20260831103027 59 201 0.0 0.0 0.00 0.00 0.00 92 1019.6
20260831101527 59 201 0.0 0.0 0.00 0.00 0.00 92 1019.7
20260831100034 59 201 0.0 0.0 0.00 0.00 0.00 92 1019.6
20260831094533 59 201 0.0 0.0 0.00 0.00 0.00 92 1019.5
20260831093042 59 201 0.0 0.0 0.00 0.00 0.00 91 1019.4
20260831091523 60 201 0.0 0.0 0.00 0.00 0.00 91 1019.4
20260831090020 60 201 0.0 0.0 0.00 0.00 0.00 91 1019.2
20260831084517 60 201 0.0 0.0 0.00 0.00 0.00 91 1019.0
20260831083017 60 201 0.0 0.0 0.00 0.00 0.00 91 1019.1
20260831081516 60 201 0.0 0.0 0.00 0.00 0.00 91 1019.1
20260831080014 60 201 0.0 0.0 0.00 0.00 0.00 91 1019.0
20260831074513 60 201 0.0 0.0 0.00 0.00 0.00 91 1018.9
20260831073013 61 201 0.0 0.0 0.00 0.00 0.00 90 1018.8
20260831071523 61 201 0.0 0.0 0.00 0.00 0.00 90 1018.9
20260831070009 61 201 0.0 0.0 0.00 0.00 0.00 90 1018.7
20260831064507 61 201 0.0 0.0 0.00 0.00 0.00 90 1018.5
20260831063008 62 201 0.0 0.0 0.00 0.00 0.00 90 1018.3
20260831061503 62 201 0.0 0.0 0.00 0.00 0.00 90 1018.4
20260831060004 63 201 0.0 0.0 0.00 0.00 0.00 90 1018.6
20260831054501 63 201 0.0 0.0 0.00 0.00 0.00 90 1018.6
20260831053130 63 201 0.0 0.0 0.00 0.00 0.00 89 1018.6
20260831051557 63 201 0.0 0.0 0.00 0.00 0.00 90 1018.5
20260831050056 64 201 0.0 0.0 0.00 0.00 0.00 89 1018.5
20260831044639 64 201 0.0 0.0 0.00 0.00 0.00 89 1018.5
20260831043052 64 201 0.0 0.0 0.00 0.00 0.00 89 1018.4
20260831041600 64 201 0.0 1.0 0.00 0.00 0.00 89 1018.3
20260831040051 64 201 0.0 0.0 0.00 0.00 0.00 89 1018.3
20260831034552 65 201 0.0 0.0 0.00 0.00 0.00 88 1018.3
20260831033105 65 201 0.0 0.0 0.00 0.00 0.00 88 1018.1
20260831031552 65 201 0.0 1.0 0.00 0.00 0.00 88 1018.2
20260831030050 65 201 0.0 1.0 0.00 0.00 0.00 88 1018.2
20260831024549 65 201 0.0 0.0 0.00 0.00 0.00 87 1018.2
20260831023048 65 201 0.0 0.0 0.00 0.00 0.00 87 1018.1
20260831021548 66 201 0.0 0.0 0.00 0.00 0.00 86 1017.8
20260831020048 66 201 0.0 0.0 0.00 0.00 0.00 85 1018.1
20260831014549 66 201 0.0 0.0 0.00 0.00 0.00 85 1017.9
20260831013047 66 201 0.0 0.0 0.00 0.00 0.00 85 1017.7
20260831011554 67 201 0.0 0.0 0.00 0.00 0.00 84 1017.4
20260831010059 67 201 0.0 1.0 0.00 0.00 0.00 83 1017.3
20260831004545 68 201 0.0 0.0 0.00 0.00 0.00 83 1017.0
20260831003045 68 201 0.0 0.0 0.00 0.00 0.00 82 1016.9
20260831001545 68 201 0.0 2.0 0.00 0.00 0.00 81 1016.6
20260831000046 68 207 1.0 6.0 0.00 0.00 0.00 81 1016.4
20260830234543 68 200 0.0 8.0 0.00 0.00 0.00 81 1016.4
20260830233044 68 207 0.0 5.0 0.00 0.00 0.00 80 1016.2
20260830231543 69 216 2.0 7.0 0.00 0.00 0.00 80 1016.2
20260830230042 69 221 1.0 3.0 0.00 0.00 0.00 81 1016.2
20260830224542 69 126 0.0 3.0 0.00 0.00 0.00 80 1016.2
20260830223042 69 148 0.0 3.0 0.00 0.00 0.00 80 1016.0
20260830221541 69 163 0.0 1.0 0.00 0.00 0.00 79 1016.1
20260830220040 70 207 0.0 4.0 0.00 0.00 0.00 78 1016.1
20260830214540 71 215 0.0 2.0 0.00 0.00 0.00 76 1016.1
20260830213053 71 225 0.0 6.0 0.00 0.00 0.00 74 1015.9
20260830211540 72 230 1.0 5.0 0.00 0.00 0.00 72 1016.0
20260830210039 72 213 0.0 3.0 0.00 0.00 0.00 72 1015.9
20260830204542 72 203 0.0 3.0 0.00 0.00 0.00 70 1015.9
20260830203037 73 203 0.0 3.0 0.00 0.00 0.00 69 1015.9
20260830201536 73 203 1.0 3.0 0.00 0.00 0.00 67 1016.0
20260830200034 74 202 1.0 5.0 0.00 0.00 0.00 66 1016.1
20260830194535 75 207 0.0 3.0 0.00 0.00 0.00 65 1016.2
20260830193035 75 252 0.0 3.0 0.00 0.00 0.00 64 1016.3
20260830191535 75 198 1.0 5.0 0.00 0.00 0.00 65 1016.4
20260830190029 75 305 0.0 4.0 0.00 0.00 0.00 66 1016.7
20260830184537 75 175 1.0 2.0 0.00 0.00 0.00 64 1016.8
20260830183025 74 205 0.0 4.0 0.00 0.00 0.00 64 1016.9
20260830181522 74 299 1.0 4.0 0.00 0.00 0.00 67 1017.0
20260830180020 73 144 0.0 3.0 0.00 0.00 0.00 66 1017.2
20260830174518 73 34 0.0 4.0 0.00 0.00 0.00 68 1017.4
20260830173014 72 260 0.0 4.0 0.00 0.00 0.00 69 1017.8
20260830171511 71 348 1.0 3.0 0.00 0.00 0.00 70 1018.0
20260830170007 71 257 1.0 3.0 0.00 0.00 0.00 71 1018.2
20260830164505 70 307 1.0 3.0 0.00 0.00 0.00 72 1018.2
20260830163004 69 214 0.0 0.0 0.00 0.00 0.00 74 1018.4
20260830161504 69 213 0.0 2.0 0.00 0.00 0.00 73 1018.7
20260830160004 69 200 0.0 3.0 0.00 0.00 0.00 72 1018.8
20260830154503 69 203 0.0 2.0 0.00 0.00 0.00 73 1018.9
20260830153002 69 203 0.0 6.0 0.00 0.00 0.00 73 1019.0
20260830151502 69 194 2.0 5.0 0.00 0.00 0.00 73 1019.3
20260830150001 70 195 0.0 0.0 0.00 0.00 0.00 72 1018.2
20260830144557 70 195 0.0 2.0 0.00 0.00 0.00 71 1018.8
20260830143056 70 192 1.0 6.0 0.00 0.00 0.00 69 1019.1
20260830141556 69 135 1.0 8.0 0.00 0.00 0.00 72 1019.1
20260830140049 67 132 0.0 3.0 0.00 0.00 0.00 78 1019.3
20260830134546 65 188 0.0 3.0 0.00 0.00 0.00 85 1019.3
20260830133046 63 211 0.0 4.0 0.00 0.00 0.00 90 1019.5